Location: Earls Croome
(52.0667°N, 2.2000°W)
Time: 20:48:17
(UTC+00:00)

COSMOS 2455 - Visible Passes

Search period start: 21 February 2020 00:00
Search period end: 02 March 2020 00:00
Orbit: 902 x 907 km, 67.1° (Epoch: 21 February)

Date Brightness Start Highest point End Pass type
(mag) Time Alt. Az. Time Alt. Az. Time Alt. Az.
21 Feb 5.4 01:38:59 15° NNE 01:38:59 15° NNE 01:40:21 10° NNE visible
21 Feb 4.8 03:22:07 18° NNW 03:23:30 19° N 03:27:46 10° NE visible
21 Feb 4.3 05:05:57 10° NNW 05:11:20 32° NNE 05:16:42 10° E visible
22 Feb 5.3 01:42:45 16° NNE 01:42:45 16° NNE 01:44:28 10° NNE visible
22 Feb 4.9 03:25:53 17° NNW 03:27:54 20° N 03:32:16 10° NE visible
22 Feb 4.1 05:10:00 10° NNW 05:15:35 37° NE 05:21:09 10° ESE visible
23 Feb 5.2 01:46:31 17° NNE 01:46:31 17° NNE 01:48:38 10° NE visible
23 Feb 4.9 03:29:39 16° NNW 03:32:17 21° NNE 03:36:48 10° ENE visible
23 Feb 3.9 05:14:01 10° NNW 05:19:47 44° NE 05:25:31 10° ESE visible
24 Feb 5.2 01:50:17 18° NNE 01:50:17 18° NNE 01:52:52 10° NE visible
24 Feb 4.8 03:33:25 15° NNW 03:36:38 23° NNE 03:41:21 10° ENE visible
24 Feb 3.6 05:18:02 10° NW 05:23:56 53° NE 05:29:50 10° ESE visible
25 Feb 5.1 01:54:04 18° N 01:54:04 18° N 01:57:10 10° NE visible
25 Feb 4.7 03:37:11 14° NNW 03:40:59 25° NNE 03:45:54 10° ENE visible
25 Feb 3.3 05:22:03 10° NW 05:28:03 64° NE 05:34:03 10° SE visible
26 Feb 5.1 01:57:49 19° N 01:57:49 19° N 02:01:33 10° NE visible
26 Feb 4.6 03:40:57 13° NNW 03:45:17 28° NNE 03:50:26 10° E visible
26 Feb 3.0 05:26:04 10° NW 05:32:09 79° NE 05:38:10 10° SE visible
27 Feb 5.6 00:18:28 10° NNE 00:18:28 10° NNE 00:18:34 10° NNE visible
27 Feb 5.0 02:01:36 19° N 02:01:44 19° N 02:05:59 10° NE visible
27 Feb 4.4 03:44:43 12° NNW 03:49:34 32° NNE 03:54:55 10° E visible
27 Feb 2.8 05:30:07 10° NW 05:36:11 85° SW 05:42:12 10° SSE visible
28 Feb 5.6 00:22:15 12° NNE 00:22:15 12° NNE 00:22:42 10° NNE visible
28 Feb 5.0 02:05:22 20° N 02:06:07 20° N 02:10:29 10° NE visible
28 Feb 4.2 03:48:30 11° NNW 03:53:48 37° NE 03:59:21 10° ESE visible
28 Feb 2.8 05:34:11 10° NW 05:40:10 68° WSW 05:46:08 10° SSE visible
29 Feb 5.5 00:26:02 13° NNE 00:26:02 13° NNE 00:26:52 10° NE visible
29 Feb 5.0 02:09:09 20° N 02:10:30 21° NNE 02:15:00 10° ENE visible
29 Feb 3.9 03:52:17 10° NNW 03:58:01 44° NE 04:03:45 10° ESE visible
29 Feb 3.0 05:38:17 10° NW 05:44:07 53° WSW 05:49:57 10° SSE visible
29 Feb 4.5 19:04:37 10° SE 19:05:46 13° SE 19:05:46 13° SE visible
29 Feb 4.2 20:46:41 10° SSW 20:49:05 25° SSW 20:49:05 25° SSW visible
29 Feb5.722:46:41NE22:46:41NE22:32:25WSWvisible
01 Mar 5.4 00:29:49 14° NNE 00:29:49 14° NNE 00:31:06 10° NE visible
01 Mar 4.9 02:12:57 20° N 02:14:52 23° NNE 02:19:33 10° ENE visible
01 Mar 3.5 03:56:15 10° NW 04:02:10 52° NE 04:08:02 10° ESE visible
01 Mar 3.2 05:42:26 10° NW 05:48:02 42° WSW 05:53:37 10° S visible
01 Mar 4.0 19:07:23 10° SSE 19:11:32 20° ESE 19:12:27 19° E visible
01 Mar 2.9 20:50:38 10° SSW 20:55:47 67° SSW 20:55:47 67° SSW visible
01 Mar 5.2 22:37:57 10° W 22:50:31 - NE 22:39:08 15° W visible
